Regional Weather Roundup
Issued by NWS Albany, NY

Home | Current Version | Previous Version | Graphics & Text | Print | Product List | Glossary Off
Versions: 1 2 3 4 5 6 7 8 9 10 11 12 13 14 15 16 17 18 19 20 21 22 23 24 25 26 27

000
ASUS41 KALY 191910
RWRALY

NEW YORK STATE HOURLY WEATHER ROUNDUP
NATIONAL WEATHER SERVICE ALBANY NY
300 PM EDT SAT APR 19 2014

NOTE: "FAIR" INDICATES FEW OR NO CLOUDS BELOW 12,000 FEET WITH NO
SIGNIFICANT WEATHER AND/OR NO OBSTRUCTIONS TO VISIBILITY.

NYZ032-033-038>043-046>054-057>066-NYZ062>081-192000-
EAST


CITY           SKY/WX    TMP DP  RH WIND       PRES   REMARKS
ALBANY         PTSUNNY   58  29  33 NW17      30.28S
GLENS FALLS    MOSUNNY   57  28  33 N18G30    30.30S
POUGHKEEPSIE   SUNNY     63  27  25 N12G20    30.24R
NEWBURGH       MOSUNNY   63  27  25 N16G25    30.24S
MONTGOMERY     SUNNY     65  26  23 NE14      30.22S
WHITE PLAINS   SUNNY     63  23  21 N15G22    30.21F
ISLIP          PTSUNNY   64  27  24 NW14      30.22S
NEW YORK CITY  PTSUNNY   64  24  21 VRB6G16   30.23S
CENTRAL PARK   SUNNY     66  25  21 NE9       30.25S
$$

NYZ005>009-017-018-044>046-055-056-192000-
CENTRAL


CITY           SKY/WX    TMP DP  RH WIND       PRES   REMARKS
FULTON         SUNNY     50  29  44 N15G22    30.42F
SYRACUSE       MOSUNNY   52  29  41 N13       30.40S
ROME           SUNNY     53  25  33 N12G22    30.38S
ELMIRA         SUNNY     52  31  44 NE13G21   30.38R
BINGHAMTON     SUNNY     52  28  39 NW13G20   30.33R
MONTICELLO     SUNNY     55  21  26 N17G23    30.28R
$$

NYZ026>034-041>043-192000-
NORTH


CITY           SKY/WX    TMP DP  RH WIND       PRES   REMARKS
WATERTOWN      PTSUNNY   53  27  36 N12       30.41S
FORT DRUM      NOT AVBL
MASSENA        SUNNY     47  27  45 NW15      30.41S
SARANAC LAKE   PTSUNNY   40  26  57 VRB7      30.32S
PLATTSBURGH    MOSUNNY   50  27  40 N15G22    30.34S
$$

NYZ001>004-010>016-019>021-192000-
WEST


CITY           SKY/WX    TMP DP  RH WIND       PRES   REMARKS
NIAGARA FALLS  MOSUNNY   48  26  42 N12       30.42F
BUFFALO        MOSUNNY   51  28  41 NE13      30.41F
DUNKIRK        SUNNY     48  30  49 N16G22    30.41F
JAMESTOWN      SUNNY     52  27  37 N9G16     30.34F
WELLSVILLE     SUNNY     52  24  33 N12       30.34S
ROCHESTER      MOSUNNY   47  29  49 NE9       30.43F
PENN YAN       SUNNY     50  32  50 N9        30.39F
$$

             KEY
       WCI = WIND CHILL INDEX
       VSB = VISIBILITY
       HX  = HEAT INDEX
$$



USA.gov is the U.S. government's official web portal to all federal, state and local government web resources and services.